Location: Colonia Mina de C?rbuni
(46.1667°N, 22.7167°E)
Time: 05:29:34
(UTC+00:00)

PSLV R/B - Pass Details

Date: 04 February 2023
Orbit: 491 x 557 km, 97.8° (Epoch: 21 March)

Event Time Altitude Azimuth Distance (km) Brightness Sun altitude
Rises 17:27:34 0° 178° (S) 2,564 7.3 -19.2°
Reaches altitude 10° 17:29:40 10° 183° (S) 1,692 6.4 -19.6°
Maximum altitude 17:33:13 50° 260° (W) 646 4.5 -20.2°
Drops below altitude 10° 17:36:51 10° 337° (NNW) 1,736 6.6 -20.8°
Sets 17:39:01 0° 343° (NNW) 2,638 7.5 -21.2°
